星链-30395 (STARLINK-30395 )

导读

STARLINK-30395是美国太空探索技术公司SpaceX星链互联网卫星星座的成员,于2023年9月9日发射升空,属于星链星座批次部署任务的一部分。它运行在近地轨道,旨在为全球提供高速低延迟的卫星互联网接入服务,拓展星链网络的覆盖范围与服务能力,支撑全球多地的互联网连接需求。

基本信息
目录编号:
57812
目录名称:
STARLINK-30395
国际标识:
2023-138E
轨道中心:
EARTH
卫星名称:
星链-30395
卫星全名:
星链-30395 (STARLINK-30395 )
卫星状态:
在轨 (已飞行1091 天)
发射日期:
2023-09-09 UTC
国别 :
美国 (US)
星等 :
--
轨道信息
数据来源 国际轨道数据
星历时间: 2026-09-04T21:22:18+0800
7小时前
查看轨道信息
半长轴: 6861.243km
偏心率: 0.0001284
轨道倾角: 43.004°
近地点辐角 267.509°
升交点赤经 304.050°
平近点角 92.561°
近地点: 482.225km
远地点: 483.987km
周期: 94.268分钟
每日圈数: 15.27561
详细信息
固有亮度:
5
最大亮度:
0.3
卫星平台:
Starlink v2.0 mini
覆盖范围:
全球
运营商:
太空探索技术公司
运营商所在国:
美国
制造商(研发单位):
太空探索技术公司
制造商所在国:
美国
使用方式:
暂无
卫星简介
星链(Starlink)计划是由太空探索技术公司(SpaceX)提出的一个巨型低轨卫星互联网星座项目,计划在2019年至2024年间在太空搭建由约1.2万颗卫星组成的“星链”网络,其中1584颗将部署在地球上空550千米处的近地轨道,并从2020年开始工作。该卫星仍在工作。
2D轨道图
3D轨道图
轨道高度分析图
轨道倾角分析图
轨道综合分析图
查看轨道综合分析图
交会数据列表
事件ID 空间交会对象 最接近时刻(TCA) 交会距离 交会风险概率(CRP) 交会风险指数(CRI) 操作
CDM_260906-215605-781206-385821
2026-09-06T
21:56:08+0000
0.958 km
远距离
2.420183E-5 中风险 0.63
CDM_260906-233005-781206-385821
2026-09-06T
23:30:17+0000
2.697 km
极远距离
1.245855E-6 低风险 0.37